Time,TemperatureF,DewpointF,PressureIn,WindDirection,WindDirectionDegrees,WindSpeedMPH,WindSpeedGustMPH,Humidity,HourlyPrecipIn,Conditions,Clouds,dailyrainin,SoftwareType,DateUTC
2013-07-29 00:02:00,57.6,52.5,29.99,ENE,72,0.0,0.0,83,0.00,,---,0.00,VWS V14.01,2013-07-29 05:02:00,
2013-07-29 00:07:00,57.3,52.2,29.99,ENE,72,0.0,0.0,83,0.00,,---,0.00,VWS V14.01,2013-07-29 05:07:00,
2013-07-29 00:12:00,57.2,52.4,29.99,ENE,72,0.0,0.0,84,0.00,,---,0.00,VWS V14.01,2013-07-29 05:12:00,
2013-07-29 00:17:00,57.2,52.4,29.98,ENE,72,0.0,0.0,84,0.00,,---,0.00,VWS V14.01,2013-07-29 05:17:00,
2013-07-29 00:22:00,57.0,52.2,29.98,ENE,72,0.0,0.0,84,0.00,,---,0.00,VWS V14.01,2013-07-29 05:22:00,
2013-07-29 00:27:00,57.0,52.2,29.98,ENE,72,0.0,0.0,84,0.00,,---,0.00,VWS V14.01,2013-07-29 05:27:00,
2013-07-29 00:32:00,57.2,52.7,29.98,ENE,72,0.0,0.0,85,0.00,,---,0.00,VWS V14.01,2013-07-29 05:32:00,
2013-07-29 00:37:00,57.2,52.4,29.98,ENE,72,0.0,0.0,84,0.00,,---,0.00,VWS V14.01,2013-07-29 05:37:00,
2013-07-29 00:42:00,56.9,52.4,29.98,ENE,72,0.0,0.0,85,0.00,,---,0.00,VWS V14.01,2013-07-29 05:42:00,
2013-07-29 00:47:00,56.6,52.2,29.98,ENE,72,0.0,0.0,85,0.00,,---,0.00,VWS V14.01,2013-07-29 05:47:00,
2013-07-29 00:52:00,56.5,52.4,29.98,ENE,72,0.0,0.0,86,0.00,,---,0.00,VWS V14.01,2013-07-29 05:52:00,
2013-07-29 00:57:00,56.5,52.4,29.98,ENE,72,0.0,0.0,86,0.00,,---,0.00,VWS V14.01,2013-07-29 05:57:00,
2013-07-29 01:02:00,56.5,52.7,29.98,ENE,72,0.0,0.0,87,0.00,,---,0.00,VWS V14.01,2013-07-29 06:02:00,
2013-07-29 01:07:00,56.5,52.4,29.98,ENE,72,0.0,0.0,86,0.00,,---,0.00,VWS V14.01,2013-07-29 06:07:00,
2013-07-29 01:12:00,56.3,52.2,29.98,ENE,72,0.0,0.0,86,0.00,,---,0.00,VWS V14.01,2013-07-29 06:12:00,
2013-07-29 01:17:00,56.2,52.4,29.99,ENE,72,0.0,0.0,87,0.00,,---,0.00,VWS V14.01,2013-07-29 06:17:00,
2013-07-29 01:22:00,56.2,52.4,29.99,ENE,72,0.0,0.0,87,0.00,,---,0.00,VWS V14.01,2013-07-29 06:22:00,
2013-07-29 01:27:00,55.9,52.1,29.99,ENE,72,0.0,0.0,87,0.00,,---,0.00,VWS V14.01,2013-07-29 06:27:00,
2013-07-29 01:32:00,55.7,51.9,29.98,ENE,72,0.0,0.0,87,0.00,,---,0.00,VWS V14.01,2013-07-29 06:32:00,
2013-07-29 01:37:00,56.2,52.7,29.98,ENE,72,0.0,0.0,88,0.00,,---,0.00,VWS V14.01,2013-07-29 06:37:00,
2013-07-29 01:42:00,56.7,52.6,29.98,ENE,72,0.0,0.0,86,0.00,,---,0.00,VWS V14.01,2013-07-29 06:42:00,
2013-07-29 01:47:00,57.2,52.4,29.98,ENE,72,0.0,0.0,84,0.00,,---,0.00,VWS V14.01,2013-07-29 06:47:00,
2013-07-29 01:52:00,57.5,52.4,29.98,ENE,72,0.0,0.0,83,0.00,,---,0.00,VWS V14.01,2013-07-29 06:52:00,
2013-07-29 01:57:00,57.8,52.7,29.98,ENE,72,0.0,0.0,83,0.00,,---,0.00,VWS V14.01,2013-07-29 06:57:00,
2013-07-29 02:02:00,58.0,52.5,29.98,ENE,72,0.0,0.0,82,0.00,,---,0.00,VWS V14.01,2013-07-29 07:02:00,
2013-07-29 02:07:00,57.8,52.3,29.98,ENE,72,0.0,0.0,82,0.00,,---,0.00,VWS V14.01,2013-07-29 07:07:00,
2013-07-29 02:12:00,57.6,52.2,29.98,ENE,72,0.0,0.0,82,0.00,,---,0.00,VWS V14.01,2013-07-29 07:12:00,
2013-07-29 02:17:00,57.5,52.1,29.98,ENE,72,0.0,0.0,82,0.00,,---,0.00,VWS V14.01,2013-07-29 07:17:00,
2013-07-29 02:22:00,57.2,52.1,29.98,ENE,72,0.0,0.0,83,0.00,,---,0.00,VWS V14.01,2013-07-29 07:22:00,
2013-07-29 02:27:00,57.0,51.9,29.98,ENE,72,0.0,0.0,83,0.00,,---,0.00,VWS V14.01,2013-07-29 07:27:00,
2013-07-29 02:32:00,57.2,52.1,29.98,ENE,72,0.0,0.0,83,0.00,,---,0.00,VWS V14.01,2013-07-29 07:32:00,
2013-07-29 02:37:00,57.2,52.1,29.98,ENE,72,0.0,0.0,83,0.00,,---,0.00,VWS V14.01,2013-07-29 07:37:00,
2013-07-29 02:42:00,57.2,52.1,29.98,ENE,72,0.0,0.0,83,0.00,,---,0.00,VWS V14.01,2013-07-29 07:42:00,
2013-07-29 02:47:00,57.0,51.9,29.99,ENE,72,0.0,0.0,83,0.00,,---,0.00,VWS V14.01,2013-07-29 07:47:00,
2013-07-29 02:52:00,57.0,52.2,29.99,ENE,72,0.0,0.0,84,0.00,,---,0.00,VWS V14.01,2013-07-29 07:52:00,
2013-07-29 02:57:00,57.0,52.2,29.99,ENE,72,0.0,0.0,84,0.00,,---,0.00,VWS V14.01,2013-07-29 07:57:00,
2013-07-29 03:02:00,56.7,51.9,29.99,ENE,72,0.0,0.0,84,0.00,,---,0.00,VWS V14.01,2013-07-29 08:02:00,
2013-07-29 03:07:00,56.5,51.7,29.99,ENE,72,0.0,0.0,84,0.00,,---,0.00,VWS V14.01,2013-07-29 08:07:00,
2013-07-29 03:12:00,56.2,51.8,29.99,ENE,72,0.0,0.0,85,0.00,,---,0.00,VWS V14.01,2013-07-29 08:12:00,
2013-07-29 03:17:00,56.0,51.9,29.99,ENE,72,0.0,0.0,86,0.00,,---,0.00,VWS V14.01,2013-07-29 08:17:00,
2013-07-29 03:22:00,55.9,51.8,29.99,ENE,72,0.0,0.0,86,0.00,,---,0.00,VWS V14.01,2013-07-29 08:22:00,
2013-07-29 03:27:00,55.7,51.9,29.99,ENE,72,0.0,0.0,87,0.00,,---,0.00,VWS V14.01,2013-07-29 08:27:00,
2013-07-29 03:32:00,55.7,51.6,29.98,ENE,72,0.0,0.0,86,0.00,,---,0.00,VWS V14.01,2013-07-29 08:32:00,
2013-07-29 03:37:00,55.7,51.9,29.98,ENE,72,0.0,0.0,87,0.00,,---,0.00,VWS V14.01,2013-07-29 08:37:00,
2013-07-29 03:42:00,55.7,51.9,29.98,ENE,72,0.0,0.0,87,0.00,,---,0.00,VWS V14.01,2013-07-29 08:42:00,
2013-07-29 03:47:00,55.9,51.8,29.99,ENE,72,0.0,0.0,86,0.00,,---,0.00,VWS V14.01,2013-07-29 08:47:00,
2013-07-29 03:52:00,56.2,51.8,29.99,ENE,72,0.0,0.0,85,0.00,,---,0.00,VWS V14.01,2013-07-29 08:52:00,
2013-07-29 03:57:00,56.2,51.8,29.99,ENE,72,0.0,0.0,85,0.00,,---,0.00,VWS V14.01,2013-07-29 08:57:00,
2013-07-29 04:02:00,56.0,51.6,29.98,ENE,72,0.0,0.0,85,0.00,,---,0.00,VWS V14.01,2013-07-29 09:02:00,
2013-07-29 04:07:00,56.0,51.9,29.98,ENE,72,0.0,0.0,86,0.00,,---,0.00,VWS V14.01,2013-07-29 09:07:00,
2013-07-29 04:12:00,56.0,51.9,29.98,ENE,72,0.0,0.0,86,0.00,,---,0.00,VWS V14.01,2013-07-29 09:12:00,
2013-07-29 04:17:00,55.7,51.6,29.99,ENE,72,0.0,0.0,86,0.00,,---,0.00,VWS V14.01,2013-07-29 09:17:00,
2013-07-29 04:22:00,55.6,51.8,29.99,ENE,72,0.0,0.0,87,0.00,,---,0.00,VWS V14.01,2013-07-29 09:22:00,
2013-07-29 04:27:00,55.7,51.9,29.99,ENE,72,0.0,0.0,87,0.00,,---,0.00,VWS V14.01,2013-07-29 09:27:00,
2013-07-29 04:32:00,55.7,51.9,29.99,ENE,72,0.0,0.0,87,0.00,,---,0.00,VWS V14.01,2013-07-29 09:32:00,
2013-07-29 04:37:00,55.6,51.8,29.99,ENE,72,0.0,0.0,87,0.00,,---,0.00,VWS V14.01,2013-07-29 09:37:00,
2013-07-29 04:42:00,55.6,51.8,29.99,ENE,72,0.0,0.0,87,0.00,,---,0.00,VWS V14.01,2013-07-29 09:42:00,
2013-07-29 04:47:00,55.6,52.1,30.00,ENE,72,0.0,0.0,88,0.00,,---,0.00,VWS V14.01,2013-07-29 09:47:00,
2013-07-29 04:52:00,55.7,51.9,30.00,ENE,72,0.0,0.0,87,0.00,,---,0.00,VWS V14.01,2013-07-29 09:52:00,
2013-07-29 04:57:00,55.7,51.9,30.00,ENE,72,0.0,0.0,87,0.00,,---,0.00,VWS V14.01,2013-07-29 09:57:00,
2013-07-29 05:02:00,55.4,51.6,29.99,ENE,72,0.0,0.0,87,0.00,,---,0.00,VWS V14.01,2013-07-29 10:02:00,
2013-07-29 05:07:00,55.3,51.8,29.99,ENE,72,0.0,0.0,88,0.00,,---,0.00,VWS V14.01,2013-07-29 10:07:00,
2013-07-29 05:12:00,55.3,52.1,29.99,ENE,72,0.0,0.0,89,0.00,,---,0.00,VWS V14.01,2013-07-29 10:12:00,
2013-07-29 05:17:00,55.3,52.1,30.00,ENE,72,0.0,0.0,89,0.00,,---,0.00,VWS V14.01,2013-07-29 10:17:00,
2013-07-29 05:22:00,55.1,51.6,30.00,ENE,72,0.0,0.0,88,0.00,,---,0.00,VWS V14.01,2013-07-29 10:22:00,
2013-07-29 05:27:00,55.0,51.8,30.00,ENE,72,0.0,0.0,89,0.00,,---,0.00,VWS V14.01,2013-07-29 10:27:00,
2013-07-29 05:32:00,54.8,51.6,29.99,ENE,72,0.0,0.0,89,0.00,,---,0.00,VWS V14.01,2013-07-29 10:32:00,
2013-07-29 05:37:00,54.5,51.6,29.99,ENE,72,0.0,0.0,90,0.00,,---,0.00,VWS V14.01,2013-07-29 10:37:00,
2013-07-29 05:42:00,54.5,51.6,29.99,ENE,72,0.0,0.0,90,0.00,,---,0.00,VWS V14.01,2013-07-29 10:42:00,
2013-07-29 05:47:00,54.5,51.9,29.99,ENE,72,0.0,0.0,91,0.00,,---,0.00,VWS V14.01,2013-07-29 10:47:00,
2013-07-29 05:52:00,54.5,51.9,29.99,ENE,72,0.0,0.0,91,0.00,,---,0.00,VWS V14.01,2013-07-29 10:52:00,
2013-07-29 05:57:00,54.5,51.9,29.99,ENE,72,0.0,0.0,91,0.00,,---,0.00,VWS V14.01,2013-07-29 10:57:00,
2013-07-29 06:02:00,54.2,51.6,29.99,ENE,72,0.0,0.0,91,0.00,,---,0.00,VWS V14.01,2013-07-29 11:02:00,
2013-07-29 06:07:00,54.1,51.5,29.99,ENE,72,0.0,0.0,91,0.00,,---,0.00,VWS V14.01,2013-07-29 11:07:00,
2013-07-29 06:12:00,54.2,51.9,29.99,ESE,123,0.0,0.0,92,0.00,,---,0.00,VWS V14.01,2013-07-29 11:12:00,
2013-07-29 06:17:00,54.2,52.2,30.00,ESE,123,0.0,0.0,93,0.00,,---,0.00,VWS V14.01,2013-07-29 11:17:00,
2013-07-29 06:22:00,54.2,52.2,30.00,ESE,123,0.0,0.0,93,0.00,,---,0.00,VWS V14.01,2013-07-29 11:22:00,
2013-07-29 06:27:00,54.4,52.7,30.00,ESE,123,0.0,0.0,94,0.00,,---,0.00,VWS V14.01,2013-07-29 11:27:00,
2013-07-29 06:32:00,54.4,52.7,30.00,ESE,123,0.0,0.0,94,0.00,,---,0.00,VWS V14.01,2013-07-29 11:32:00,
2013-07-29 06:37:00,54.5,52.8,30.00,ESE,123,0.0,0.0,94,0.00,,---,0.00,VWS V14.01,2013-07-29 11:37:00,
2013-07-29 06:42:00,55.1,53.1,30.00,ESE,123,0.0,0.0,93,0.00,,---,0.00,VWS V14.01,2013-07-29 11:42:00,
2013-07-29 06:47:00,55.6,53.3,30.00,ESE,123,0.0,0.0,92,0.00,,---,0.00,VWS V14.01,2013-07-29 11:47:00,
2013-07-29 06:52:00,56.0,53.4,30.00,ESE,123,0.0,0.0,91,0.00,,---,0.00,VWS V14.01,2013-07-29 11:52:00,
2013-07-29 06:58:00,56.5,53.6,30.00,ESE,123,0.0,0.0,90,0.00,,---,0.00,VWS V14.01,2013-07-29 11:58:00,
2013-07-29 07:03:00,56.9,54.0,30.00,ESE,123,0.0,0.0,90,0.00,,---,0.00,VWS V14.01,2013-07-29 12:03:00,
2013-07-29 07:08:00,57.2,53.7,30.00,ESE,123,0.0,0.0,88,0.00,,---,0.00,VWS V14.01,2013-07-29 12:08:00,
2013-07-29 07:13:00,57.5,54.0,30.00,ESE,123,0.0,0.0,88,0.00,,---,0.00,VWS V14.01,2013-07-29 12:13:00,
2013-07-29 07:18:00,57.8,54.0,30.00,SE,124,0.0,0.0,87,0.00,,---,0.00,VWS V14.01,2013-07-29 12:18:00,
2013-07-29 07:23:00,58.1,54.3,30.00,SE,124,0.0,0.0,87,0.00,,---,0.00,VWS V14.01,2013-07-29 12:23:00,
2013-07-29 07:28:00,58.6,54.4,30.00,SE,126,0.0,0.0,86,0.00,,---,0.00,VWS V14.01,2013-07-29 12:28:00,
2013-07-29 07:33:00,59.0,54.8,30.01,SE,127,0.0,0.0,86,0.00,,---,0.00,VWS V14.01,2013-07-29 12:33:00,
2013-07-29 07:38:00,59.3,54.5,30.01,SE,128,0.0,0.0,84,0.00,,---,0.00,VWS V14.01,2013-07-29 12:38:00,
2013-07-29 07:43:00,59.5,55.0,30.01,SE,128,0.0,0.0,85,0.00,,---,0.00,VWS V14.01,2013-07-29 12:43:00,
2013-07-29 07:48:00,59.5,55.0,30.01,SE,128,0.0,0.0,85,0.00,,---,0.00,VWS V14.01,2013-07-29 12:48:00,
2013-07-29 07:54:00,59.8,55.0,30.01,SE,130,0.0,0.0,84,0.00,,---,0.00,VWS V14.01,2013-07-29 12:54:00,
2013-07-29 07:59:00,60.2,55.3,30.01,SE,134,0.0,0.0,84,0.00,,---,0.00,VWS V14.01,2013-07-29 12:59:00,
2013-07-29 08:04:00,60.9,55.7,30.01,SSE,152,2.0,2.0,83,0.00,,---,0.00,VWS V14.01,2013-07-29 13:04:00,
2013-07-29 08:09:00,61.2,55.3,30.01,SSW,195,1.0,2.0,81,0.00,,---,0.00,VWS V14.01,2013-07-29 13:09:00,
2013-07-29 08:14:00,61.5,56.0,30.01,SSW,192,1.0,4.0,82,0.00,,---,0.00,VWS V14.01,2013-07-29 13:14:00,
2013-07-29 08:19:00,62.0,55.4,30.02,SSW,200,1.0,6.0,79,0.00,,---,0.00,VWS V14.01,2013-07-29 13:19:00,
2013-07-29 08:24:00,62.6,56.0,30.02,SW,233,1.0,3.0,79,0.00,,---,0.00,VWS V14.01,2013-07-29 13:24:00,
2013-07-29 08:29:00,62.9,55.6,30.02,SSW,212,1.0,6.0,77,0.00,,---,0.00,VWS V14.01,2013-07-29 13:29:00,
2013-07-29 08:34:00,63.5,56.2,30.02,SW,223,1.0,4.0,77,0.00,,---,0.00,VWS V14.01,2013-07-29 13:34:00,
2013-07-29 08:39:00,63.9,55.8,30.02,SSW,192,2.0,6.0,75,0.00,,---,0.00,VWS V14.01,2013-07-29 13:39:00,
2013-07-29 08:44:00,63.7,54.9,30.02,SSW,196,2.0,6.0,73,0.00,,---,0.00,VWS V14.01,2013-07-29 13:44:00,
2013-07-29 08:49:00,64.0,55.2,30.03,SSW,198,2.0,6.0,73,0.00,,---,0.00,VWS V14.01,2013-07-29 13:49:00,
2013-07-29 08:54:00,64.5,54.9,30.03,SW,233,5.0,7.0,71,0.00,,---,0.00,VWS V14.01,2013-07-29 13:54:00,
2013-07-29 08:59:00,64.7,54.3,30.03,SSW,198,3.0,8.0,69,0.00,,---,0.00,VWS V14.01,2013-07-29 13:59:00,
2013-07-29 09:05:00,64.8,54.0,30.03,SSW,199,3.0,6.0,68,0.00,,---,0.00,VWS V14.01,2013-07-29 14:05:00,
2013-07-29 09:10:00,65.5,54.7,30.03,SSW,210,3.0,7.0,68,0.00,,---,0.00,VWS V14.01,2013-07-29 14:10:00,
2013-07-29 09:15:00,65.6,54.4,30.03,SSW,206,3.0,7.0,67,0.00,,---,0.00,VWS V14.01,2013-07-29 14:15:00,
2013-07-29 09:20:00,66.1,54.4,30.03,South,184,5.0,7.0,66,0.00,,---,0.00,VWS V14.01,2013-07-29 14:20:00,
2013-07-29 09:25:00,66.4,54.3,30.03,WSW,239,3.0,6.0,65,0.00,,---,0.00,VWS V14.01,2013-07-29 14:25:00,
2013-07-29 09:30:00,66.4,54.3,30.03,SW,216,5.0,8.0,65,0.00,,---,0.00,VWS V14.01,2013-07-29 14:30:00,
2013-07-29 09:35:00,66.8,55.1,30.03,WSW,240,6.0,6.0,66,0.00,,---,0.00,VWS V14.01,2013-07-29 14:35:00,
2013-07-29 09:40:00,67.1,54.5,30.03,SSW,202,2.0,7.0,64,0.00,,---,0.00,VWS V14.01,2013-07-29 14:40:00,
2013-07-29 09:45:00,67.1,53.7,30.03,SW,227,5.0,8.0,62,0.00,,---,0.00,VWS V14.01,2013-07-29 14:45:00,
2013-07-29 09:50:00,67.3,53.4,30.03,South,178,8.0,10.0,61,0.00,,---,0.00,VWS V14.01,2013-07-29 14:50:00,
2013-07-29 09:55:00,67.4,53.5,30.03,South,188,7.0,7.0,61,0.00,,---,0.00,VWS V14.01,2013-07-29 14:55:00,
2013-07-29 10:00:00,67.4,53.5,30.03,SSW,206,2.0,8.0,61,0.00,,---,0.00,VWS V14.01,2013-07-29 15:00:00,
2013-07-29 10:05:00,68.1,54.6,30.03,SSW,209,2.0,7.0,62,0.00,,---,0.00,VWS V14.01,2013-07-29 15:05:00,
2013-07-29 10:10:00,68.3,55.2,30.03,SSW,196,3.0,7.0,63,0.00,,---,0.00,VWS V14.01,2013-07-29 15:10:00,
2013-07-29 10:15:00,68.1,54.2,30.03,South,184,7.0,10.0,61,0.00,,---,0.00,VWS V14.01,2013-07-29 15:15:00,
2013-07-29 10:20:00,67.8,53.9,30.03,SSW,193,4.0,10.0,61,0.00,,---,0.00,VWS V14.01,2013-07-29 15:20:00,
2013-07-29 10:25:00,68.1,53.7,30.03,SSW,200,7.0,11.0,60,0.00,,---,0.00,VWS V14.01,2013-07-29 15:25:00,
2013-07-29 10:30:00,67.8,53.9,30.03,SSW,202,8.0,11.0,61,0.00,,---,0.00,VWS V14.01,2013-07-29 15:30:00,
2013-07-29 10:36:00,67.9,54.4,30.03,SSW,213,6.0,8.0,62,0.00,,---,0.00,VWS V14.01,2013-07-29 15:36:00,
2013-07-29 10:41:00,68.1,54.2,30.03,SW,216,7.0,8.0,61,0.00,,---,0.00,VWS V14.01,2013-07-29 15:41:00,
2013-07-29 10:46:00,67.6,52.8,30.02,SW,234,5.0,12.0,59,0.00,,---,0.00,VWS V14.01,2013-07-29 15:46:00,
2013-07-29 10:51:00,67.4,52.6,30.02,SW,217,3.0,6.0,59,0.00,,---,0.00,VWS V14.01,2013-07-29 15:51:00,
2013-07-29 10:56:00,67.8,53.9,30.02,SW,227,6.0,10.0,61,0.00,,---,0.00,VWS V14.01,2013-07-29 15:56:00,
2013-07-29 11:01:00,68.1,53.7,30.03,SSW,206,8.0,8.0,60,0.00,,---,0.00,VWS V14.01,2013-07-29 16:01:00,
2013-07-29 11:06:00,67.6,53.2,30.03,SSW,192,6.0,10.0,60,0.00,,---,0.00,VWS V14.01,2013-07-29 16:06:00,
2013-07-29 11:11:00,67.3,53.4,30.03,SSW,193,4.0,5.0,61,0.00,,---,0.00,VWS V14.01,2013-07-29 16:11:00,
2013-07-29 11:17:00,67.4,53.0,30.03,SSW,199,6.0,10.0,60,0.00,,---,0.00,VWS V14.01,2013-07-29 16:17:00,
2013-07-29 11:22:00,67.9,53.5,30.03,South,178,4.0,5.0,60,0.00,,---,0.00,VWS V14.01,2013-07-29 16:22:00,
2013-07-29 11:27:00,68.3,53.9,30.03,South,181,2.0,6.0,60,0.00,,---,0.00,VWS V14.01,2013-07-29 16:27:00,
2013-07-29 11:32:00,68.4,54.0,30.03,SSW,200,2.0,5.0,60,0.00,,---,0.00,VWS V14.01,2013-07-29 16:32:00,
2013-07-29 11:37:00,68.3,53.0,30.03,SSW,198,2.0,7.0,58,0.00,,---,0.00,VWS V14.01,2013-07-29 16:37:00,
2013-07-29 11:42:00,68.6,53.7,30.03,SSW,200,2.0,5.0,59,0.00,,---,0.00,VWS V14.01,2013-07-29 16:42:00,
2013-07-29 11:47:00,68.9,53.1,30.02,SW,226,2.0,8.0,57,0.00,,---,0.00,VWS V14.01,2013-07-29 16:47:00,
2013-07-29 11:52:00,69.3,53.4,30.02,South,178,4.0,6.0,57,0.00,,---,0.00,VWS V14.01,2013-07-29 16:52:00,
2013-07-29 11:57:00,68.8,53.9,30.02,SW,220,2.0,9.0,59,0.00,,---,0.00,VWS V14.01,2013-07-29 16:57:00,
2013-07-29 12:02:00,69.4,54.0,30.02,SSW,202,5.0,6.0,58,0.00,,---,0.00,VWS V14.01,2013-07-29 17:02:00,
2013-07-29 12:07:00,70.1,54.7,30.02,WSW,250,6.0,7.0,58,0.00,,---,0.00,VWS V14.01,2013-07-29 17:07:00,
2013-07-29 12:12:00,70.6,54.2,30.02,SSW,198,5.0,7.0,56,0.00,,---,0.00,VWS V14.01,2013-07-29 17:12:00,
2013-07-29 12:17:00,70.6,54.2,30.01,SSW,203,7.0,8.0,56,0.00,,---,0.00,VWS V14.01,2013-07-29 17:17:00,
2013-07-29 12:22:00,70.8,54.3,30.01,SSW,202,3.0,7.0,56,0.00,,---,0.00,VWS V14.01,2013-07-29 17:22:00,
2013-07-29 12:27:00,70.8,53.8,30.01,SSW,196,6.0,11.0,55,0.00,,---,0.00,VWS V14.01,2013-07-29 17:27:00,
2013-07-29 12:32:00,70.8,53.8,30.01,South,189,1.0,6.0,55,0.00,,---,0.00,VWS V14.01,2013-07-29 17:32:00,
2013-07-29 12:37:00,70.6,53.2,30.01,SSW,203,4.0,9.0,54,0.00,,---,0.00,VWS V14.01,2013-07-29 17:37:00,
2013-07-29 12:42:00,70.9,54.4,30.01,SSW,193,5.0,8.0,56,0.00,,---,0.00,VWS V14.01,2013-07-29 17:42:00,
2013-07-29 12:47:00,71.6,54.6,30.01,SSW,193,5.0,10.0,55,0.00,,---,0.00,VWS V14.01,2013-07-29 17:47:00,
2013-07-29 12:53:00,72.0,56.4,30.01,SSE,164,2.0,10.0,58,0.00,,---,0.00,VWS V14.01,2013-07-29 17:53:00,
2013-07-29 12:58:00,72.1,53.5,30.01,SSW,193,8.0,10.0,52,0.00,,---,0.00,VWS V14.01,2013-07-29 17:58:00,
2013-07-29 13:03:00,72.1,51.9,30.01,SSW,196,2.0,7.0,49,0.00,,---,0.00,VWS V14.01,2013-07-29 18:03:00,
2013-07-29 13:08:00,71.8,52.7,30.01,South,182,10.0,13.0,51,0.00,,---,0.00,VWS V14.01,2013-07-29 18:08:00,
2013-07-29 13:13:00,71.8,52.2,30.01,WSW,239,3.0,10.0,50,0.00,,---,0.00,VWS V14.01,2013-07-29 18:13:00,
2013-07-29 13:18:00,72.7,53.0,30.00,SE,136,3.0,11.0,50,0.00,,---,0.00,VWS V14.01,2013-07-29 18:18:00,
2013-07-29 13:23:00,72.5,51.2,30.00,WSW,239,3.0,6.0,47,0.00,,---,0.00,VWS V14.01,2013-07-29 18:23:00,
2013-07-29 13:28:00,72.5,54.4,30.00,South,172,2.0,10.0,53,0.00,,---,0.00,VWS V14.01,2013-07-29 18:28:00,
2013-07-29 13:33:00,72.8,54.7,30.00,South,174,3.0,10.0,53,0.00,,---,0.00,VWS V14.01,2013-07-29 18:33:00,
2013-07-29 13:38:00,73.0,52.2,30.00,SE,144,1.0,12.0,48,0.00,,---,0.00,VWS V14.01,2013-07-29 18:38:00,
2013-07-29 13:43:00,72.3,52.6,30.00,South,174,6.0,6.0,50,0.00,,---,0.00,VWS V14.01,2013-07-29 18:43:00,
2013-07-29 13:48:00,73.0,53.8,30.00,SSW,208,6.0,8.0,51,0.00,,---,0.00,VWS V14.01,2013-07-29 18:48:00,
2013-07-29 13:53:00,72.7,54.1,30.00,SSW,196,3.0,7.0,52,0.00,,---,0.00,VWS V14.01,2013-07-29 18:53:00,
2013-07-29 13:58:00,72.1,53.5,30.00,South,181,1.0,8.0,52,0.00,,---,0.00,VWS V14.01,2013-07-29 18:58:00,
2013-07-29 14:03:00,71.5,52.4,30.00,South,186,3.0,12.0,51,0.00,,---,0.00,VWS V14.01,2013-07-29 19:03:00,
2013-07-29 14:08:00,71.6,53.6,30.00,SSW,196,6.0,12.0,53,0.00,,---,0.00,VWS V14.01,2013-07-29 19:08:00,
2013-07-29 14:13:00,71.6,53.6,30.00,SSW,205,3.0,6.0,53,0.00,,---,0.00,VWS V14.01,2013-07-29 19:13:00,
2013-07-29 14:18:00,72.1,53.5,29.99,South,188,7.0,8.0,52,0.00,,---,0.00,VWS V14.01,2013-07-29 19:18:00,
2013-07-29 14:23:00,73.5,53.7,29.99,SSW,208,1.0,7.0,50,0.00,,---,0.00,VWS V14.01,2013-07-29 19:23:00,
2013-07-29 14:28:00,73.5,53.7,29.99,WSW,246,7.0,10.0,50,0.00,,---,0.00,VWS V14.01,2013-07-29 19:28:00,
2013-07-29 14:33:00,73.3,53.6,29.99,SSW,195,5.0,11.0,50,0.00,,---,0.00,VWS V14.01,2013-07-29 19:33:00,
2013-07-29 14:39:00,73.9,54.1,29.99,SW,226,3.0,13.0,50,0.00,,---,0.00,VWS V14.01,2013-07-29 19:39:00,
2013-07-29 14:44:00,74.0,53.7,29.99,SW,215,2.0,11.0,49,0.00,,---,0.00,VWS V14.01,2013-07-29 19:44:00,
2013-07-29 14:49:00,74.4,54.6,29.99,SW,223,8.0,12.0,50,0.00,,---,0.00,VWS V14.01,2013-07-29 19:49:00,
2013-07-29 14:54:00,74.7,54.3,29.99,SW,219,2.0,8.0,49,0.00,,---,0.00,VWS V14.01,2013-07-29 19:54:00,
2013-07-29 14:59:00,74.9,54.5,29.99,SSW,196,6.0,12.0,49,0.00,,---,0.00,VWS V14.01,2013-07-29 19:59:00,
2013-07-29 15:04:00,73.9,54.7,29.99,South,191,6.0,8.0,51,0.00,,---,0.00,VWS V14.01,2013-07-29 20:04:00,
2013-07-29 15:09:00,73.3,54.6,29.99,SSW,213,4.0,11.0,52,0.00,,---,0.00,VWS V14.01,2013-07-29 20:09:00,
2013-07-29 15:14:00,74.2,56.0,29.99,South,185,7.0,9.0,53,0.00,,---,0.00,VWS V14.01,2013-07-29 20:14:00,
2013-07-29 15:19:00,75.1,53.5,29.99,SSW,195,6.0,11.0,47,0.00,,---,0.00,VWS V14.01,2013-07-29 20:19:00,
2013-07-29 15:24:00,74.2,54.4,29.99,SSW,209,4.0,11.0,50,0.00,,---,0.00,VWS V14.01,2013-07-29 20:24:00,
2013-07-29 15:29:00,73.9,55.7,29.99,SSW,202,5.0,11.0,53,0.00,,---,0.00,VWS V14.01,2013-07-29 20:29:00,
2013-07-29 15:34:00,73.5,54.3,29.99,South,172,6.0,7.0,51,0.00,,---,0.00,VWS V14.01,2013-07-29 20:34:00,
2013-07-29 15:39:00,73.5,54.3,29.99,SSW,196,2.0,7.0,51,0.00,,---,0.00,VWS V14.01,2013-07-29 20:39:00,
2013-07-29 15:45:00,74.0,55.3,29.99,West,260,6.0,8.0,52,0.00,,---,0.00,VWS V14.01,2013-07-29 20:45:00,
2013-07-29 15:50:00,73.7,55.0,29.99,SW,220,10.0,11.0,52,0.00,,---,0.00,VWS V14.01,2013-07-29 20:50:00,
2013-07-29 15:55:00,73.3,55.7,29.99,WSW,240,4.0,8.0,54,0.00,,---,0.00,VWS V14.01,2013-07-29 20:55:00,
2013-07-29 16:00:00,74.2,56.0,29.99,SW,219,7.0,11.0,53,0.00,,---,0.00,VWS V14.01,2013-07-29 21:00:00,
2013-07-29 16:05:00,73.9,55.2,29.99,SW,220,3.0,9.0,52,0.00,,---,0.00,VWS V14.01,2013-07-29 21:05:00,
2013-07-29 16:10:00,73.5,55.3,29.99,WSW,240,2.0,9.0,53,0.00,,---,0.00,VWS V14.01,2013-07-29 21:10:00,
2013-07-29 16:15:00,73.2,54.0,29.99,SW,219,2.0,8.0,51,0.00,,---,0.00,VWS V14.01,2013-07-29 21:15:00,
2013-07-29 16:20:00,73.5,55.3,29.99,SSW,210,4.0,8.0,53,0.00,,---,0.00,VWS V14.01,2013-07-29 21:20:00,
2013-07-29 16:25:00,73.5,55.9,29.99,South,182,6.0,7.0,54,0.00,,---,0.00,VWS V14.01,2013-07-29 21:25:00,
2013-07-29 16:30:00,73.2,55.1,29.99,South,189,5.0,7.0,53,0.00,,---,0.00,VWS V14.01,2013-07-29 21:30:00,
2013-07-29 16:35:00,73.2,54.0,29.99,SSW,192,7.0,10.0,51,0.00,,---,0.00,VWS V14.01,2013-07-29 21:35:00,
2013-07-29 16:40:00,73.0,53.8,29.99,South,179,2.0,10.0,51,0.00,,---,0.00,VWS V14.01,2013-07-29 21:40:00,
2013-07-29 16:45:00,74.0,54.2,29.99,South,188,8.0,8.0,50,0.00,,---,0.00,VWS V14.01,2013-07-29 21:45:00,
2013-07-29 16:50:00,74.2,54.4,29.99,South,189,5.0,10.0,50,0.00,,---,0.00,VWS V14.01,2013-07-29 21:50:00,
2013-07-29 16:55:00,73.5,53.2,29.99,SSW,200,6.0,8.0,49,0.00,,---,0.00,VWS V14.01,2013-07-29 21:55:00,
2013-07-29 17:00:00,73.2,54.0,29.99,South,186,3.0,8.0,51,0.00,,---,0.00,VWS V14.01,2013-07-29 22:00:00,
2013-07-29 17:05:00,73.0,53.8,29.99,South,186,2.0,6.0,51,0.00,,---,0.00,VWS V14.01,2013-07-29 22:05:00,
2013-07-29 17:10:00,73.0,54.4,29.99,SSW,200,1.0,6.0,52,0.00,,---,0.00,VWS V14.01,2013-07-29 22:10:00,
2013-07-29 17:16:00,73.2,54.5,29.99,WSW,243,5.0,5.0,52,0.00,,---,0.00,VWS V14.01,2013-07-29 22:16:00,
2013-07-29 17:21:00,73.9,55.2,29.99,SSW,200,7.0,7.0,52,0.00,,---,0.00,VWS V14.01,2013-07-29 22:21:00,
2013-07-29 17:26:00,73.9,55.2,29.99,SW,220,2.0,7.0,52,0.00,,---,0.00,VWS V14.01,2013-07-29 22:26:00,
2013-07-29 17:31:00,73.3,54.6,29.98,SSW,196,3.0,3.0,52,0.00,,---,0.00,VWS V14.01,2013-07-29 22:31:00,
2013-07-29 17:36:00,73.0,54.4,29.98,SW,234,7.0,7.0,52,0.00,,---,0.00,VWS V14.01,2013-07-29 22:36:00,
2013-07-29 17:41:00,72.7,54.1,29.98,SSW,203,1.0,2.0,52,0.00,,---,0.00,VWS V14.01,2013-07-29 22:41:00,
2013-07-29 17:46:00,72.5,53.9,29.99,South,179,8.0,10.0,52,0.00,,---,0.00,VWS V14.01,2013-07-29 22:46:00,
2013-07-29 17:51:00,72.3,53.7,29.99,South,182,5.0,10.0,52,0.00,,---,0.00,VWS V14.01,2013-07-29 22:51:00,
2013-07-29 17:56:00,72.3,54.2,29.99,SW,216,2.0,10.0,53,0.00,,---,0.00,VWS V14.01,2013-07-29 22:56:00,
2013-07-29 18:01:00,72.3,54.2,29.99,SSW,193,3.0,3.0,53,0.00,,---,0.00,VWS V14.01,2013-07-29 23:01:00,
2013-07-29 18:06:00,72.0,53.4,29.99,SW,234,5.0,8.0,52,0.00,,---,0.00,VWS V14.01,2013-07-29 23:06:00,
2013-07-29 18:11:00,71.6,54.1,29.99,SW,230,5.0,6.0,54,0.00,,---,0.00,VWS V14.01,2013-07-29 23:11:00,
2013-07-29 18:16:00,71.5,54.0,29.99,SSW,213,2.0,6.0,54,0.00,,---,0.00,VWS V14.01,2013-07-29 23:16:00,
2013-07-29 18:21:00,71.3,54.3,29.99,SW,222,2.0,4.0,55,0.00,,---,0.00,VWS V14.01,2013-07-29 23:21:00,
2013-07-29 18:26:00,71.1,55.1,29.99,SW,222,0.0,5.0,57,0.00,,---,0.00,VWS V14.01,2013-07-29 23:26:00,
2013-07-29 18:31:00,70.9,55.4,29.99,WSW,241,2.0,4.0,58,0.00,,---,0.00,VWS V14.01,2013-07-29 23:31:00,
2013-07-29 18:36:00,70.6,54.6,29.99,SW,227,1.0,6.0,57,0.00,,---,0.00,VWS V14.01,2013-07-29 23:36:00,
2013-07-29 18:41:00,70.6,55.1,29.99,SW,229,1.0,3.0,58,0.00,,---,0.00,VWS V14.01,2013-07-29 23:41:00,
2013-07-29 18:46:00,70.4,54.9,30.00,SW,226,1.0,5.0,58,0.00,,---,0.00,VWS V14.01,2013-07-29 23:46:00,
2013-07-29 18:51:00,70.3,54.8,30.00,SW,219,1.0,2.0,58,0.00,,---,0.00,VWS V14.01,2013-07-29 23:51:00,
2013-07-29 18:56:00,70.3,54.8,30.00,SW,219,1.0,3.0,58,0.00,,---,0.00,VWS V14.01,2013-07-29 23:56:00,
2013-07-29 19:02:00,70.3,55.8,29.99,SSW,210,1.0,2.0,60,0.00,,---,0.00,VWS V14.01,2013-07-30 00:02:00,
2013-07-29 19:07:00,70.1,55.6,29.99,SSW,205,1.0,2.0,60,0.00,,---,0.00,VWS V14.01,2013-07-30 00:07:00,
2013-07-29 19:12:00,70.1,56.5,29.99,SSW,202,1.0,2.0,62,0.00,,---,0.00,VWS V14.01,2013-07-30 00:12:00,
2013-07-29 19:17:00,69.9,55.8,29.98,SSW,202,1.0,2.0,61,0.00,,---,0.00,VWS V14.01,2013-07-30 00:17:00,
2013-07-29 19:22:00,69.8,56.2,29.98,SSW,200,1.0,1.0,62,0.00,,---,0.00,VWS V14.01,2013-07-30 00:22:00,
2013-07-29 19:27:00,69.6,56.5,29.98,SSW,200,1.0,1.0,63,0.00,,---,0.00,VWS V14.01,2013-07-30 00:27:00,
2013-07-29 19:32:00,69.3,56.2,29.98,SSW,200,0.0,1.0,63,0.00,,---,0.00,VWS V14.01,2013-07-30 00:32:00,
2013-07-29 19:37:00,69.1,56.4,29.98,SSW,200,0.0,1.0,64,0.00,,---,0.00,VWS V14.01,2013-07-30 00:37:00,
2013-07-29 19:42:00,68.8,56.6,29.98,SSW,200,1.0,1.0,65,0.00,,---,0.00,VWS V14.01,2013-07-30 00:42:00,
2013-07-29 19:47:00,68.6,56.8,29.98,SSW,202,1.0,1.0,66,0.00,,---,0.00,VWS V14.01,2013-07-30 00:47:00,
2013-07-29 19:52:00,68.4,57.0,29.98,SSW,199,0.0,1.0,67,0.00,,---,0.00,VWS V14.01,2013-07-30 00:52:00,
2013-07-29 19:57:00,68.3,56.9,29.98,SSW,202,1.0,1.0,67,0.00,,---,0.00,VWS V14.01,2013-07-30 00:57:00,
2013-07-29 20:02:00,68.1,57.2,29.98,SSW,202,1.0,1.0,68,0.00,,---,0.00,VWS V14.01,2013-07-30 01:02:00,
2013-07-29 20:07:00,67.9,57.4,29.98,SSW,202,0.0,1.0,69,0.00,,---,0.00,VWS V14.01,2013-07-30 01:07:00,
2013-07-29 20:12:00,67.6,57.9,29.98,SSW,202,1.0,1.0,71,0.00,,---,0.00,VWS V14.01,2013-07-30 01:12:00,
2013-07-29 20:17:00,67.4,58.1,29.97,SSW,202,0.0,1.0,72,0.00,,---,0.00,VWS V14.01,2013-07-30 01:17:00,
2013-07-29 20:22:00,67.3,58.0,29.97,SSW,202,0.0,1.0,72,0.00,,---,0.00,VWS V14.01,2013-07-30 01:22:00,
2013-07-29 20:27:00,67.1,57.8,29.97,SSW,198,1.0,2.0,72,0.00,,---,0.00,VWS V14.01,2013-07-30 01:27:00,
2013-07-29 20:32:00,67.1,58.2,29.97,SSW,198,1.0,1.0,73,0.00,,---,0.00,VWS V14.01,2013-07-30 01:32:00,
2013-07-29 20:37:00,66.9,58.0,29.97,SSW,198,1.0,1.0,73,0.00,,---,0.00,VWS V14.01,2013-07-30 01:37:00,
2013-07-29 20:42:00,66.8,58.6,29.97,SSW,198,0.0,1.0,75,0.00,,---,0.00,VWS V14.01,2013-07-30 01:42:00,
2013-07-29 20:47:00,66.6,58.8,29.97,SSW,198,0.0,1.0,76,0.00,,---,0.00,VWS V14.01,2013-07-30 01:47:00,
2013-07-29 20:53:00,66.4,59.3,29.97,SSW,198,0.0,0.0,78,0.00,,---,0.00,VWS V14.01,2013-07-30 01:53:00,
2013-07-29 20:58:00,66.1,59.4,29.97,SSW,198,0.0,0.0,79,0.00,,---,0.00,VWS V14.01,2013-07-30 01:58:00,
2013-07-29 21:03:00,66.0,59.3,29.97,SSW,198,0.0,0.0,79,0.00,,---,0.00,VWS V14.01,2013-07-30 02:03:00,
2013-07-29 21:08:00,66.0,59.3,29.97,SSW,198,0.0,0.0,79,0.00,,---,0.00,VWS V14.01,2013-07-30 02:08:00,
2013-07-29 21:13:00,66.0,60.3,29.97,SSW,198,0.0,0.0,82,0.00,,---,0.00,VWS V14.01,2013-07-30 02:13:00,
2013-07-29 21:18:00,65.8,60.8,29.98,SSW,198,0.0,0.0,84,0.00,,---,0.00,VWS V14.01,2013-07-30 02:18:00,
2013-07-29 21:23:00,65.5,60.5,29.98,SSW,198,0.0,0.0,84,0.00,,---,0.00,VWS V14.01,2013-07-30 02:23:00,
2013-07-29 21:28:00,65.3,60.3,29.98,SSW,198,0.0,0.0,84,0.01,,---,0.01,VWS V14.01,2013-07-30 02:28:00,
2013-07-29 21:33:00,65.0,60.0,29.98,SSW,198,0.0,0.0,84,0.01,,---,0.01,VWS V14.01,2013-07-30 02:33:00,
2013-07-29 21:38:00,64.7,59.4,29.98,SSW,198,0.0,0.0,83,0.02,,---,0.02,VWS V14.01,2013-07-30 02:38:00,
2013-07-29 21:43:00,64.5,60.2,29.98,SSW,198,0.0,0.0,86,0.02,,---,0.02,VWS V14.01,2013-07-30 02:43:00,
2013-07-29 21:48:00,64.3,60.3,29.98,SSW,198,0.0,0.0,87,0.02,,---,0.02,VWS V14.01,2013-07-30 02:48:00,
2013-07-29 21:53:00,64.3,60.3,29.98,SSW,202,0.0,2.0,87,0.02,,---,0.02,VWS V14.01,2013-07-30 02:53:00,
2013-07-29 21:58:00,64.2,60.9,29.98,SSW,202,0.0,2.0,89,0.02,,---,0.02,VWS V14.01,2013-07-30 02:58:00,
2013-07-29 22:03:00,64.0,60.7,30.00,SSW,203,0.0,2.0,89,0.03,,---,0.03,VWS V14.01,2013-07-30 03:03:00,
2013-07-29 22:08:00,63.7,60.1,30.00,SSW,205,1.0,2.0,88,0.03,,---,0.03,VWS V14.01,2013-07-30 03:08:00,
2013-07-29 22:13:00,63.5,59.9,30.00,SW,234,2.0,3.0,88,0.03,,---,0.03,VWS V14.01,2013-07-30 03:13:00,
2013-07-29 22:18:00,63.4,59.8,30.00,WSW,248,1.0,5.0,88,0.03,,---,0.03,VWS V14.01,2013-07-30 03:18:00,
2013-07-29 22:23:00,63.2,59.9,30.00,WSW,253,2.0,4.0,89,0.04,,---,0.04,VWS V14.01,2013-07-30 03:23:00,
2013-07-29 22:28:00,62.9,59.0,30.00,SW,233,0.0,5.0,87,0.04,,---,0.04,VWS V14.01,2013-07-30 03:28:00,
2013-07-29 22:33:00,62.9,59.3,30.00,SW,233,1.0,1.0,88,0.03,,---,0.04,VWS V14.01,2013-07-30 03:33:00,
2013-07-29 22:38:00,62.6,59.0,30.00,SW,233,1.0,1.0,88,0.03,,---,0.04,VWS V14.01,2013-07-30 03:38:00,
2013-07-29 22:43:00,62.3,59.0,30.00,WSW,237,0.0,2.0,89,0.03,,---,0.05,VWS V14.01,2013-07-30 03:43:00,
2013-07-29 22:48:00,62.0,59.0,30.01,SW,230,0.0,2.0,90,0.03,,---,0.05,VWS V14.01,2013-07-30 03:48:00,
2013-07-29 22:53:00,61.6,58.6,30.01,SW,227,0.0,1.0,90,0.03,,---,0.05,VWS V14.01,2013-07-30 03:53:00,
2013-07-29 22:58:00,61.5,58.8,30.01,SW,230,1.0,2.0,91,0.03,,---,0.05,VWS V14.01,2013-07-30 03:58:00,
2013-07-29 23:01:00,61.3,58.7,30.02,SW,224,0.0,0.0,91,0.03,,---,0.05,VWS V14.01,2013-07-30 04:01:00,
2013-07-29 23:06:00,61.3,58.7,30.02,SW,224,0.0,2.0,91,0.04,,---,0.06,VWS V14.01,2013-07-30 04:06:00,
2013-07-29 23:11:00,61.0,58.7,30.02,SW,222,0.0,0.0,92,0.03,,---,0.06,VWS V14.01,2013-07-30 04:11:00,
2013-07-29 23:16:00,61.0,59.0,30.01,SW,217,0.0,1.0,93,0.03,,---,0.06,VWS V14.01,2013-07-30 04:16:00,
2013-07-29 23:21:00,61.0,59.6,30.01,SW,217,0.0,0.0,95,0.03,,---,0.06,VWS V14.01,2013-07-30 04:21:00,
2013-07-29 23:26:00,60.9,59.5,30.01,SSW,208,2.0,3.0,95,0.03,,---,0.06,VWS V14.01,2013-07-30 04:26:00,
2013-07-29 23:31:00,61.0,59.3,30.01,SSW,202,1.0,2.0,94,0.02,,---,0.06,VWS V14.01,2013-07-30 04:31:00,
2013-07-29 23:36:00,61.0,59.6,30.01,SSW,193,2.0,3.0,95,0.02,,---,0.06,VWS V14.01,2013-07-30 04:36:00,
2013-07-29 23:41:00,60.9,59.5,30.01,South,186,2.0,3.0,95,0.01,,---,0.06,VWS V14.01,2013-07-30 04:41:00,
2013-07-29 23:46:00,60.9,59.5,29.99,South,184,1.0,6.0,95,0.01,,---,0.06,VWS V14.01,2013-07-30 04:46:00,
2013-07-29 23:51:00,60.9,59.2,29.99,South,181,2.0,2.0,94,0.01,,---,0.06,VWS V14.01,2013-07-30 04:51:00,
2013-07-29 23:56:00,61.0,59.0,29.99,South,178,5.0,8.0,93,0.01,,---,0.06,VWS V14.01,2013-07-30 04:56:00,